FW3866 Weather Reports


Display with metric or nautical units.
time (UTC)temp
F
wind
direction
speed
MPH
gust
MPH
rain 1hr
in
rain 24hr
in
rain mn
in
humidity
%
barometer
mb
20260504191710 54 326 19.0 27.0 0.00 0.00 0.00 48 1010.6
20260504191210 54 351 19.0 30.0 0.00 0.00 0.00 49 1010.5
20260504190208 53 324 16.0 24.0 0.00 0.00 0.00 50 1010.6
20260504185709 53 314 15.0 26.0 0.00 0.00 0.00 49 1010.5
20260504184209 54 309 19.0 27.0 0.00 0.00 0.00 50 1010.5
20260504183710 53 336 17.0 22.0 0.00 0.00 0.00 49 1010.6
20260504182709 54 326 16.0 23.0 0.00 0.00 0.00 49 1010.6
20260504182209 53 336 11.0 22.0 0.00 0.00 0.00 52 1010.7
20260504181708 52 355 14.0 26.0 0.00 0.00 0.00 51 1010.6
20260504181207 52 343 17.0 27.0 0.00 0.00 0.00 50 1010.6
20260504180708 53 357 19.0 28.0 0.00 0.00 0.00 50 1010.6
20260504175709 53 334 16.0 28.0 0.00 0.00 0.00 50 1010.5
20260504175207 53 348 19.0 28.0 0.00 0.00 0.00 48 1010.5
20260504174707 53 336 15.0 22.0 0.00 0.00 0.00 50 1010.5
20260504174208 53 0.0 21.0 0.00 0.00 0.00 50 1010.3
20260504173707 53 327 21.0 21.0 0.00 0.00 0.00 49 1010.3
20260504173207 53 0 17.0 24.0 0.00 0.00 0.00 48 1010.1
20260504172707 54 323 15.0 24.0 0.00 0.00 0.00 49 1009.6
20260504172206 54 350 11.0 31.0 0.00 0.00 0.00 49 1010.1
20260504171706 54 326 19.0 31.0 0.00 0.00 0.00 48 1010.1
20260504171206 54 0 19.0 28.0 0.00 0.00 0.00 48 1010.3
20260504170708 54 338 15.0 24.0 0.00 0.00 0.00 48 1010.1
20260504170206 54 355 20.0 27.0 0.00 0.00 0.00 48 1010.1
20260504160206 54 350 16.0 28.0 0.00 0.00 0.00 45 1008.9
20260504150704 55 327 15.0 27.0 0.00 0.00 0.00 47 1008.5
20260504150204 55 317 17.0 23.0 0.00 0.00 0.00 49 1008.5
20260504141203 52 354 10.0 17.0 0.00 0.00 0.00 67 1008.0
20260504140704 51 313 12.0 16.0 0.00 0.00 0.00 67 1008.0
20260504140201 51 331 10.0 17.0 0.00 0.00 0.00 67 1008.0
20260504130702 48 345 4.0 6.0 0.00 0.00 0.00 79 1007.2
20260504130200 47 317 5.0 6.0 0.00 0.00 0.00 79 1007.1
20260504120200 0 348 5.0 7.0 0.00 0.00 0.00 1006.1
20260504100157 46 321 6.0 10.0 0.00 0.00 0.00 82 1004.2
20260504081654 53 245 14.0 18.0 0.00 0.00 0.00 74 1002.6
20260504081154 53 241 14.0 19.0 0.00 0.00 0.00 74 1002.3
20260504080653 52 240 16.0 19.0 0.00 0.00 0.00 74 1002.7
20260504080154 52 241 14.0 17.0 0.00 0.00 0.00 74 1002.7
20260504070152 50 264 8.0 11.0 0.00 0.00 0.00 75 1004.1
20260504060150 54 240 12.0 15.0 0.00 0.00 0.00 65 1004.6
20260504050649 56 217 16.0 19.0 0.00 0.00 0.00 59 1004.8
20260504050148 55 216 13.0 17.0 0.00 0.00 0.00 59 1005.0
20260504045150 54 210 12.0 14.0 0.00 0.00 0.00 61 1005.2
20260504044649 53 203 12.0 14.0 0.00 0.00 0.00 62 1005.2
20260504044148 52 216 11.0 13.0 0.00 0.00 0.00 63 1005.4
20260504043649 53 212 10.0 14.0 0.00 0.00 0.00 62 1005.4
20260504043147 53 213 11.0 14.0 0.00 0.00 0.00 62 1005.4
20260504042147 53 209 11.0 16.0 0.00 0.00 0.00 60 1005.6
20260504041647 54 214 13.0 17.0 0.00 0.00 0.00 60 1005.5
20260504041148 53 209 14.0 17.0 0.00 0.00 0.00 60 1005.4
20260504040648 53 207 12.0 13.0 0.00 0.00 0.00 60 1005.6
20260504040147 53 209 9.0 13.0 0.00 0.00 0.00 59 1005.6
20260504035648 53 209 11.0 13.0 0.00 0.00 0.00 59 1005.7
20260504035146 53 202 10.0 12.0 0.00 0.00 0.00 60 1005.6
20260504034147 53 203 9.0 13.0 0.00 0.00 0.00 60 1005.8
20260504033646 54 202 9.0 13.0 0.00 0.00 0.00 59 1005.8
20260504033147 54 202 11.0 13.0 0.00 0.00 0.00 59 1005.9
20260504032645 53 209 10.0 13.0 0.00 0.00 0.00 59 1005.9
20260504032147 53 196 7.0 9.0 0.00 0.00 0.00 60 1005.9
20260504031647 53 0.0 10.0 0.00 0.00 0.00 62 1005.9
20260504031145 52 197 8.0 10.0 0.00 0.00 0.00 62 1006.1
20260504030646 52 197 6.0 9.0 0.00 0.00 0.00 63 1006.2
20260504030145 52 197 6.0 9.0 0.00 0.00 0.00 63 1006.2
20260504025646 52 196 5.0 10.0 0.00 0.00 0.00 64 1006.4
20260504025145 51 195 6.0 10.0 0.00 0.00 0.00 64 1006.4
20260504024646 51 192 6.0 9.0 0.00 0.00 0.00 65 1006.5
20260504024146 51 193 6.0 9.0 0.00 0.00 0.00 64 1006.6
20260504023646 51 195 5.0 7.0 0.00 0.00 0.00 64 1006.7
20260504023144 51 190 6.0 9.0 0.00 0.00 0.00 63 1006.8
20260504022644 51 199 7.0 10.0 0.00 0.00 0.00 62 1006.8
20260504021644 52 200 8.0 9.0 0.00 0.00 0.00 61 1006.8
20260504021146 52 199 7.0 10.0 0.00 0.00 0.00 61 1006.8
20260504020644 52 199 8.0 11.0 0.00 0.00 0.00 60 1006.9
20260504020144 53 204 10.0 11.0 0.00 0.00 0.00 59 1006.9
20260504015643 53 203 9.0 10.0 0.00 0.00 0.00 57 1007.0
20260504015145 55 209 9.0 10.0 0.00 0.00 0.00 54 1007.0
20260504014143 56 221 7.0 9.0 0.00 0.00 0.00 51 1007.3
20260504013644 58 224 6.0 7.0 0.00 0.00 0.00 48 1007.4
20260504012644 60 224 6.0 9.0 0.00 0.00 0.00 45 1007.5
20260504012142 61 240 7.0 9.0 0.00 0.00 0.00 45 1007.7
20260504011643 62 248 6.0 7.0 0.00 0.00 0.00 44 1007.6
20260504011143 63 248 6.0 10.0 0.00 0.00 0.00 43 1007.8
20260504010642 64 261 7.0 11.0 0.00 0.00 0.00 41 1007.9
20260504010144 65 262 8.0 11.0 0.00 0.00 0.00 39 1008.0
20260504005642 66 255 9.0 11.0 0.00 0.00 0.00 38 1007.9
20260504005142 67 257 9.0 14.0 0.00 0.00 0.00 38 1008.0
20260504004143 68 268 10.0 15.0 0.00 0.00 0.00 35 1008.3
20260504002643 68 255 11.0 16.0 0.00 0.00 0.00 35 1008.4
20260504002143 69 259 11.0 19.0 0.00 0.00 0.00 34 1008.5
20260504001641 69 245 13.0 19.0 0.00 0.00 0.00 34 1008.6
20260504001143 69 255 13.0 19.0 0.00 0.00 0.00 35 1008.7
20260504000641 69 281 9.0 19.0 0.00 0.00 0.00 35 1008.7
20260503235641 69 247 15.0 20.0 0.00 0.00 0.00 34 1008.8
20260503235143 69 258 15.0 20.0 0.00 0.00 0.00 33 1009.0
20260503234641 70 262 12.0 17.0 0.00 0.00 0.00 32 1009.1
20260503234141 70 272 14.0 24.0 0.00 0.00 0.00 31 1009.1
20260503233641 70 290 17.0 24.0 0.00 0.00 0.00 31 1009.3
20260503233140 70 303 11.0 19.0 0.00 0.00 0.00 33 1009.3
20260503232641 70 282 13.0 21.0 0.00 0.00 0.00 30 1009.4
20260503232140 70 286 14.0 21.0 0.00 0.00 0.00 31 1009.4
20260503231140 70 257 17.0 21.0 0.00 0.00 0.00 32 1009.5
20260503230641 70 262 13.0 22.0 0.00 0.00 0.00 31 1009.4
20260503230140 70 264 9.0 22.0 0.00 0.00 0.00 30 1009.6
20260503225141 71 240 15.0 19.0 0.00 0.00 0.00 31 1009.5
20260503224640 70 282 11.0 20.0 0.00 0.00 0.00 32 1009.7
20260503224139 71 281 14.0 20.0 0.00 0.00 0.00 31 1009.8
20260503223640 70 319 15.0 20.0 0.00 0.00 0.00 30 1009.8
20260503223140 70 286 14.0 19.0 0.00 0.00 0.00 30 1010.0
20260503222638 70 264 12.0 19.0 0.00 0.00 0.00 28 1009.9
20260503222139 70 300 15.0 19.0 0.00 0.00 0.00 29 1010.0
20260503221639 70 317 12.0 19.0 0.00 0.00 0.00 28 1010.3
20260503221139 71 269 11.0 18.0 0.00 0.00 0.00 29 1010.1
20260503220639 70 312 10.0 18.0 0.00 0.00 0.00 28 1010.4
20260503220140 71 275 11.0 18.0 0.00 0.00 0.00 28 1010.6
20260503215639 71 288 14.0 18.0 0.00 0.00 0.00 28 1010.6
20260503215137 70 264 13.0 18.0 0.00 0.00 0.00 27 1010.4
20260503214639 70 293 8.0 18.0 0.00 0.00 0.00 28 1010.8
20260503214137 71 288 12.0 20.0 0.00 0.00 0.00 29 1011.0
20260503213638 71 310 11.0 20.0 0.00 0.00 0.00 30 1011.0
20260503213138 70 303 10.0 16.0 0.00 0.00 0.00 30 1011.0
20260503212637 70 285 8.0 16.0 0.00 0.00 0.00 27 1011.0
20260503212139 69 310 6.0 18.0 0.00 0.00 0.00 29 1011.1
20260503211638 70 238 12.0 18.0 0.00 0.00 0.00 26 1011.3
20260503211138 70 266 12.0 17.0 0.00 0.00 0.00 30 1011.3
20260503210637 70 252 7.0 15.0 0.00 0.00 0.00 26 1011.4
20260503210137 70 295 3.0 19.0 0.00 0.00 0.00 25 1011.5
20260503205636 70 299 10.0 20.0 0.00 0.00 0.00 26 1011.7
20260503204636 70 317 13.0 20.0 0.00 0.00 0.00 26 1011.8
20260503204136 70 340 2.0 16.0 0.00 0.00 0.00 28 1011.9
20260503203637 70 313 11.0 16.0 0.00 0.00 0.00 28 1012.0
20260503203136 69 279 8.0 15.0 0.00 0.00 0.00 27 1012.0
20260503202637 69 306 7.0 17.0 0.00 0.00 0.00 26 1012.3
20260503201635 69 321 2.0 14.0 0.00 0.00 0.00 22 1012.3
20260503200635 69 262 9.0 18.0 0.00 0.00 0.00 23 1012.5
20260503200136 69 320 10.0 20.0 0.00 0.00 0.00 24 1012.7
20260503195136 69 341 9.0 14.0 0.00 0.00 0.00 24 1012.7
20260503194634 69 314 5.0 13.0 0.00 0.00 0.00 25 1012.7
20260503194133 69 288 8.0 18.0 0.00 0.00 0.00 26 1012.9
20260503193635 68 0 9.0 18.0 0.00 0.00 0.00 23 1012.8
20260503193135 68 0 7.0 16.0 0.00 0.00 0.00 25 1013.0
20260503192635 68 306 7.0 17.0 0.00 0.00 0.00 23 1012.9
20260503192135 68 293 10.0 17.0 0.00 0.00 0.00 24 1013.1